Change the Weather History Date:

Tuesday, March 4, 2014

  Actual Average Record
Temperature  
Mean Temperature 0 °F -  
Max Temperature 19 °F 31 °F 50 °F (1999)
Min Temperature -18 °F 7 °F -20 °F (2003)
Degree Days  
Heating Degree Days 64    
Moisture  
Dew Point -2 °F    
Average Humidity 69    
Maximum Humidity 88    
Minimum Humidity 19    
Precipitation  
Precipitation 0.00 in - - ()
Sea Level Pressure  
Sea Level Pressure 30.26 in    
Wind  
Wind Speed 1 mph (WNW)    
Max Wind Speed 9 mph    
Max Gust Speed -    
Visibility 5 miles    
Events Snow    
Averages and records for this station are not official NWS values.
T = Trace of Precipitation, MM = Missing Value Source: NWS Daily Summary

Daily Weather History Graph

Daily Weather History Graph

Search for Another Location

Airport or City:

Trip Planner

Search our weather history database for the weather conditions in past years. The results will help you decide how hot, cold, wet, or windy it might be!

Date:

Astronomy

Mar. 04, 2014 Rise Set
Actual Time 6:18 AM EST 5:38 PM EST
Civil Twilight 5:49 AM EST 6:07 PM EST
Nautical Twilight 5:15 AM EST 6:40 PM EST
Astronomical Twilight 4:41 AM EST 7:14 PM EST
Moon 7:53 AM EST (3/4) 9:53 PM EST (3/4)
Length of Visible Light 12h 17m
Length of Day
11h 19m
Waxing Crescent, 14% of the Moon is Illuminated
Mar 4
Waxing Crescent
Mar 8
First Quarter
Mar 16
Full
Mar 23
Last Quarter
Mar 30
New

Hourly Weather History & Observations

Time (EST) Temp. Windchill Dew Point Humidity Pressure Visibility Wind Dir Wind Speed Gust Speed Precip Events Conditions
12:52 AM -11.0 °F - -18.0 °F 71% 30.34 in 10.0 mi Calm Calm - N/A   Clear
1:52 AM -11.9 °F -21.5 °F -18.9 °F 71% 30.33 in 10.0 mi ENE 3.5 mph - N/A   Clear
2:52 AM -14.1 °F - -20.9 °F 71% 30.32 in 10.0 mi Calm Calm - N/A   Clear
3:52 AM -15.0 °F - -22.0 °F 71% 30.33 in 10.0 mi Calm Calm - N/A   Clear
4:52 AM -17.0 °F - -23.1 °F 74% 30.33 in 10.0 mi Calm Calm - N/A   Clear
5:52 AM -17.0 °F - -24.0 °F 70% 30.34 in 10.0 mi Calm Calm - N/A   Clear
6:52 AM -18.0 °F - -23.1 °F 78% 30.34 in 10.0 mi Calm Calm - N/A   Clear
7:50 AM -11.2 °F - -14.8 °F 84% 30.25 in 2.0 mi Calm Calm - N/A   Clear
7:52 AM -9.9 °F - -15.0 °F 78% 30.36 in 2.0 mi Calm Calm - N/A   Haze
8:04 AM -8.0 °F - -14.1 °F 75% 30.25 in 4.0 mi Calm Calm - N/A   Haze
8:52 AM -0.0 °F - -9.9 °F 63% 30.35 in 8.0 mi Calm Calm - N/A   Clear
9:52 AM 7.0 °F 0.1 °F -11.9 °F 42% 30.35 in 10.0 mi WNW 3.5 mph - N/A   Mostly Cloudy
10:52 AM 14.0 °F 3.9 °F -11.0 °F 32% 30.32 in 10.0 mi West 6.9 mph - N/A   Overcast
11:52 AM 17.1 °F 5.8 °F -14.1 °F 24% 30.29 in 9.0 mi WNW 9.2 mph - N/A   Overcast
12:52 PM 19.0 °F - -16.1 °F 20% 30.27 in 10.0 mi North - - N/A   Overcast
1:52 PM 19.0 °F 9.0 °F -17.0 °F 19% 30.26 in 10.0 mi WSW 8.1 mph - N/A   Overcast
2:52 PM 19.0 °F 13.9 °F -11.0 °F 26% 30.26 in 10.0 mi West 3.5 mph - N/A   Overcast
3:52 PM 19.0 °F 8.2 °F -2.0 °F 40% 30.27 in 10.0 mi WNW 9.2 mph - N/A   Overcast
4:52 PM 17.1 °F 10.0 °F 3.9 °F 56% 30.29 in 10.0 mi WNW 4.6 mph - N/A   Overcast
5:29 PM 16.0 °F 10.4 °F 7.0 °F 68% 30.20 in 1.5 mi West 3.5 mph - 0.00 in Snow Light Snow
5:36 PM 16.0 °F 7.4 °F 7.0 °F 68% 30.20 in 0.8 mi WNW 5.8 mph - 0.00 in Snow Light Snow
5:42 PM 16.0 °F 8.8 °F 8.1 °F 71% 30.20 in 1.2 mi NW 4.6 mph - 0.00 in Snow Light Snow
5:52 PM 15.1 °F 7.7 °F 8.1 °F 74% 30.30 in 1.5 mi NW 4.6 mph - 0.00 in Snow Light Snow
6:26 PM 15.1 °F - 9.0 °F 77% 30.21 in 0.8 mi Calm Calm - 0.00 in Snow Light Snow
6:36 PM 15.1 °F - 10.0 °F 80% 30.21 in 1.0 mi Calm Calm - 0.00 in Snow Light Snow
6:45 PM 15.1 °F - 10.0 °F 80% 30.21 in 1.2 mi Calm Calm - 0.00 in Snow Light Snow
6:50 PM 15.8 °F - 10.4 °F 79% 30.21 in 1.0 mi Calm Calm - 0.00 in Snow Light Snow
6:52 PM 15.1 °F - 10.0 °F 80% 30.31 in 1.0 mi Calm Calm - 0.00 in Snow Light Snow
6:58 PM 15.1 °F - 9.0 °F 77% 30.21 in 2.0 mi Calm Calm - 0.00 in Snow Light Snow
7:07 PM 15.1 °F - 9.0 °F 77% 30.21 in 3.0 mi Calm Calm - 0.00 in Snow Light Snow
7:13 PM 15.1 °F - 9.0 °F 77% 30.20 in 1.8 mi Calm Calm - 0.00 in Snow Light Snow
7:25 PM 15.1 °F - 9.0 °F 77% 30.20 in 1.0 mi Calm Calm - 0.00 in Snow Light Snow
7:33 PM 14.0 °F - 9.0 °F 80% 30.20 in 1.2 mi Calm Calm - 0.00 in Snow Light Snow
7:42 PM 14.0 °F - 9.0 °F 80% 30.20 in 3.0 mi Calm Calm - 0.00 in Snow Light Snow
7:52 PM 14.0 °F - 9.0 °F 80% 30.30 in 3.0 mi Calm Calm - 0.00 in Snow Light Snow
8:02 PM 14.0 °F - 9.0 °F 80% 30.20 in 2.5 mi Calm Calm - 0.00 in Snow Light Snow
8:22 PM 12.9 °F - 9.0 °F 84% 30.20 in 3.0 mi Calm Calm - 0.00 in   Overcast
8:33 PM 12.9 °F - 9.0 °F 84% 30.20 in 1.8 mi Calm Calm - 0.00 in Snow Light Snow
8:50 PM 12.2 °F - 8.6 °F 85% 30.20 in 2.5 mi Calm Calm - 0.00 in Snow Light Snow
8:52 PM 12.0 °F - 8.1 °F 84% 30.29 in 2.5 mi Calm Calm - 0.00 in Snow Light Snow
9:05 PM 10.9 °F - 8.1 °F 88% 30.21 in 4.0 mi Calm Calm - 0.00 in   Overcast
9:52 PM 10.9 °F - 7.0 °F 84% 30.28 in 3.0 mi Calm Calm - 0.00 in Snow Light Snow
10:52 PM 10.9 °F - 8.1 °F 88% 30.28 in 3.0 mi Calm Calm - 0.00 in Snow Light Snow
11:52 PM 10.9 °F - 7.0 °F 84% 30.27 in 8.0 mi Calm Calm - 0.00 in   Overcast